COSMOS 415

导读 | 豆包AI

COSMOS 415(宇宙415)是苏联(CIS独联体前身)于1971年5月7日发射的军用侦察卫星,属于苏联冷战时期“宇宙”系列卫星家族。该系列卫星承担军事侦察、空间技术验证等任务,是苏联早期空间军事应用体系的组成部分。作为特定历史时期的产物,它反映了苏联在上世纪70年代的航天活动能力,完成任务后已再入大气层销毁,在世界航天发展史上留下了印记。

基本信息
目录编号:
5214
目录名称:
COSMOS 415
国际标识:
1971-041E
轨道中心:
EARTH
卫星名称:
COSMOS 415
卫星全名:
--
卫星状态:
在轨 (已飞行20083 天)
发射日期:
1971-05-07 UTC
国别 :
俄罗斯(独联体) (CIS)
星等 :
--
轨道信息
数据来源 国际轨道数据 AOE轨道数据
星历时间 2026-04-30T19:26:38+0800
19小时前
查看轨道信息
2026-05-01T03:00:00+0800
12小时前
查看轨道信息
半长轴 7853.123km 7853.12km
偏心率 0.0031473 0.0031472
轨道倾角 74.013° 74.012°
近地点辐角 23.939° 23.334°
升交点赤经 149.958° 149.540°
平近点角 336.311° 310.357°
近地点 1450.269km 1450.267km
远地点 1499.703km 1499.699km
周期 115.431分钟 115.431分钟
每日圈数 12.474961 12.474968
详细信息
使用方式:
暂无
2D轨道图
3D轨道图
轨道高度分析图
轨道倾角分析图
轨道综合分析图
查看轨道综合分析图